Cabo San Lucas International Airport
MMSL : rendu visible

Aérodrome :











RETROUVEZ-NOUS SUR...

 
LOGIN :

S'inscrire | Disclaimer

   EN    FR    IT 

 









Légende :    VFR   VFR Marginal   IFR   IFR Intensif   IFR Très Intensif
Visi : 
Plafond : 
>= 8 km
>= 3000ft
5 à 8 km
1000 à 3000 ft
1500m à 5 km
500 à 1000 ft
800 à 1500m
200 à 500 ft
< 800m
< 200 ft
Symboles :   Orages  Brouillard  Fortes neiges  Fortes précipitations  Vent > 20 kt






- Altitude de l'aérodrome : 459 ft
- Code IATA : CSL


MMSL - Cabo San Lucas International

DERNIER METAR :
  • 262240Z 19012KT 9SM SKC 27/10 A2988 RMK CI

METARs EXPIRÉS :
  • 262146Z 18006KT 9SM SKC 27/10 A2989 RMK CI

TAF TAF MMSL
Valide du 26 à 18h jusqu'au 27 à 18h UTC


261651Z 2618/2718 19005KT P6SM SCT100 BKN260
BECMG 2620/2621 24012KT
FM270200 32005KT P6SM BKN260
BECMG 2705/2706 00000KT
FM271600 24005KT P6SM SCT250
FIR MMFR / Amérique du Nord



MET'MAP, la Météo Aéronautique d'un coup d'oeil ! - Copyright ORBIFLY Décembre 2007 - Disclaimer

ORBIFLY MET'MAP TEAM :

Programmation & Développement : Alexandra Zaïnal
Sur une idée originale de : Baudouin d'Aumeries
Assistance à la programmation : Marc-Olivier Méhu
Soutien technique & logistique : Manuel Goepfert

Contact : metmap@orbifly.com




SOURCES & CREDITS :

   NOAA       Earth
Advisory